Location: Newark
(50.8667°N, 3.7167°E)
Time: 05:29:08
(UTC+00:00)

OTV 5 (USA 277) - Visible Passes

Search period start: 14 October 2019 00:00
Search period end: 24 October 2019 00:00
Orbit: 310 x 324 km, 54.5° (Epoch: 08 October)

Date Brightness Start Highest point End Pass type
(mag) Time Alt. Az. Time Alt. Az. Time Alt. Az.
14 Oct ? 03:38:55 21° NE 03:38:55 21° NE 03:40:08 10° ENE visible
14 Oct ? 05:09:48 13° WNW 05:12:09 67° NNE 05:14:52 10° ESE visible
15 Oct ? 03:53:05 30° NE 03:53:05 30° NE 03:54:53 10° E visible
15 Oct ? 05:23:59 10° WNW 05:26:43 66° SSW 05:29:25 10° SE visible
16 Oct ? 04:07:19 47° NE 04:07:19 47° NE 04:09:38 10° E visible
17 Oct ? 04:21:38 84° E 04:21:38 84° E 04:24:18 10° ESE visible
18 Oct ? 04:36:01 46° SW 04:36:04 46° SSW 04:38:43 10° SE visible
19 Oct ? 04:50:31 22° SW 04:50:31 22° SW 04:52:42 10° SSE visible
20 Oct ? 05:05:08 11° SW 05:05:08 11° SW 05:05:36 10° SSW visible
